| time (UTC) | temp F | wind direction | speed MPH | gust MPH | rain 1hr in | rain 24hr in | rain mn in | humidity % | barometer mb |
| 20260505124522 | 66 | 271 | 0.0 | 5.0 | 0.00 | 0.00 | 0.00 | 56 | 1013.5 |
| 20260505123019 | 65 | 270 | 1.0 | 5.0 | 0.00 | 0.00 | 0.00 | 57 | 1013.6 |
| 20260505121515 | 64 | 245 | 2.0 | 8.0 | 0.00 | 0.00 | 0.00 | 58 | 1013.4 |
| 20260505120016 | 62 | 166 | 0.0 | 3.0 | 0.00 | 0.00 | 0.00 | 60 | 1013.3 |
| 20260505114512 | 62 | 287 | 0.0 | 5.0 | 0.00 | 0.00 | 0.00 | 60 | 1013.2 |
| 20260505113010 | 62 | 257 | 1.0 | 3.0 | 0.00 | 0.00 | 0.00 | 60 | 1013.0 |
| 20260505111508 | 61 | 236 | 0.0 | 7.0 | 0.00 | 0.00 | 0.00 | 61 | 1013.0 |
| 20260505101556 | 0 | 0.0 | 0.0 | 0.00 | 0.00 | 0.00 | 1012.5 | ||
| 20260505100055 | 0 | 0.0 | 0.0 | 0.00 | 0.00 | 0.00 | 1012.5 | ||
| 20260505094554 | 0 | 0.0 | 0.0 | 0.00 | 0.00 | 0.00 | 1012.4 | ||
| 20260505093052 | 0 | 0.0 | 0.0 | 0.00 | 0.00 | 0.00 | 1012.5 | ||
| 20260505091606 | 0 | 0.0 | 0.0 | 0.00 | 0.00 | 0.00 | 1012.4 | ||
| 20260505090045 | 0 | 0.0 | 0.0 | 0.00 | 0.00 | 0.00 | 1012.4 | ||
| 20260505084539 | 59 | 195 | 1.0 | 7.0 | 0.00 | 0.00 | 0.00 | 60 | 1012.3 |
| 20260505083036 | 60 | 241 | 1.0 | 6.0 | 0.00 | 0.00 | 0.00 | 60 | 1012.2 |
| 20260505081538 | 61 | 273 | 0.0 | 3.0 | 0.00 | 0.00 | 0.00 | 60 | 1012.1 |
| 20260505080035 | 61 | 271 | 1.0 | 4.0 | 0.00 | 0.00 | 0.00 | 59 | 1012.1 |
| 20260505074531 | 61 | 210 | 0.0 | 4.0 | 0.00 | 0.00 | 0.00 | 58 | 1012.1 |
| 20260505073031 | 61 | 252 | 1.0 | 7.0 | 0.00 | 0.00 | 0.00 | 58 | 1012.1 |
| 20260505071528 | 61 | 217 | 1.0 | 5.0 | 0.00 | 0.00 | 0.00 | 58 | 1011.9 |
| 20260505070026 | 62 | 248 | 1.0 | 4.0 | 0.00 | 0.00 | 0.00 | 58 | 1011.9 |
| 20260505064525 | 62 | 284 | 1.0 | 5.0 | 0.00 | 0.00 | 0.00 | 58 | 1011.8 |
| 20260505063024 | 62 | 274 | 2.0 | 7.0 | 0.00 | 0.00 | 0.00 | 59 | 1011.8 |
| 20260505061526 | 62 | 212 | 0.0 | 3.0 | 0.00 | 0.00 | 0.00 | 58 | 1011.8 |
| 20260505060023 | 62 | 295 | 0.0 | 2.0 | 0.00 | 0.00 | 0.00 | 58 | 1011.7 |
| 20260505054518 | 63 | 264 | 0.0 | 2.0 | 0.00 | 0.00 | 0.00 | 58 | 1011.6 |
| 20260505053015 | 63 | 249 | 0.0 | 2.0 | 0.00 | 0.00 | 0.00 | 57 | 1011.5 |
| 20260505051530 | 64 | 299 | 0.0 | 3.0 | 0.00 | 0.00 | 0.00 | 56 | 1011.5 |
| 20260505041510 | 64 | 228 | 0.0 | 4.0 | 0.00 | 0.00 | 0.00 | 57 | 1011.4 |
| 20260505040012 | 64 | 277 | 0.0 | 1.0 | 0.00 | 0.00 | 0.00 | 57 | 1011.4 |
| 20260505034508 | 64 | 248 | 0.0 | 1.0 | 0.00 | 0.00 | 0.00 | 56 | 1011.5 |
| 20260505033007 | 65 | 267 | 0.0 | 3.0 | 0.00 | 0.00 | 0.00 | 55 | 1011.5 |
| 20260505031506 | 65 | 248 | 0.0 | 3.0 | 0.00 | 0.00 | 0.00 | 55 | 1011.6 |
| 20260505030006 | 65 | 228 | 0.0 | 4.0 | 0.00 | 0.00 | 0.00 | 54 | 1011.7 |
| 20260505024509 | 65 | 274 | 0.0 | 2.0 | 0.00 | 0.00 | 0.00 | 54 | 1011.7 |
| 20260505023005 | 66 | 271 | 0.0 | 3.0 | 0.00 | 0.00 | 0.00 | 52 | 1011.5 |
| 20260505021503 | 67 | 262 | 0.0 | 2.0 | 0.00 | 0.00 | 0.00 | 51 | 1011.5 |
| 20260505020006 | 67 | 221 | 0.0 | 1.0 | 0.00 | 0.00 | 0.00 | 50 | 1011.5 |
| 20260505014502 | 67 | 249 | 0.0 | 1.0 | 0.00 | 0.00 | 0.00 | 50 | 1011.4 |
| 20260505013002 | 68 | 210 | 0.0 | 1.0 | 0.00 | 0.00 | 0.00 | 48 | 1011.3 |
| 20260505011601 | 69 | 210 | 0.0 | 2.0 | 0.00 | 0.00 | 0.00 | 46 | 1011.2 |
| 20260505010113 | 69 | 255 | 0.0 | 4.0 | 0.00 | 0.00 | 0.00 | 44 | 1011.1 |
| 20260505004559 | 70 | 274 | 0.0 | 4.0 | 0.00 | 0.00 | 0.00 | 43 | 1010.9 |
| 20260505003100 | 70 | 243 | 0.0 | 6.0 | 0.00 | 0.00 | 0.00 | 42 | 1010.8 |
| 20260505001604 | 71 | 279 | 2.0 | 8.0 | 0.00 | 0.00 | 0.00 | 41 | 1010.8 |
| 20260504234556 | 73 | 238 | 2.0 | 6.0 | 0.00 | 0.00 | 0.00 | 40 | 1010.7 |
| 20260504233107 | 73 | 261 | 1.0 | 6.0 | 0.00 | 0.00 | 0.00 | 39 | 1010.6 |
| 20260504231600 | 74 | 238 | 1.0 | 5.0 | 0.00 | 0.00 | 0.00 | 38 | 1010.5 |
| 20260504230058 | 74 | 253 | 1.0 | 7.0 | 0.00 | 0.00 | 0.00 | 37 | 1010.5 |
| 20260504224554 | 76 | 238 | 2.0 | 9.0 | 0.00 | 0.00 | 0.00 | 36 | 1010.5 |
| 20260504223053 | 76 | 269 | 1.0 | 10.0 | 0.00 | 0.00 | 0.00 | 36 | 1010.5 |
| 20260504221552 | 77 | 288 | 2.0 | 7.0 | 0.00 | 0.00 | 0.00 | 35 | 1010.6 |
| 20260504220051 | 77 | 304 | 2.0 | 7.0 | 0.00 | 0.00 | 0.00 | 35 | 1010.6 |
| 20260504214555 | 77 | 291 | 2.0 | 9.0 | 0.00 | 0.00 | 0.00 | 34 | 1010.6 |
| 20260504213050 | 77 | 266 | 5.0 | 12.0 | 0.00 | 0.00 | 0.00 | 34 | 1010.5 |
| 20260504211547 | 77 | 271 | 4.0 | 9.0 | 0.00 | 0.00 | 0.00 | 34 | 1010.6 |
| 20260504210059 | 77 | 281 | 1.0 | 9.0 | 0.00 | 0.00 | 0.00 | 33 | 1010.6 |
| 20260504204554 | 77 | 238 | 2.0 | 10.0 | 0.00 | 0.00 | 0.00 | 34 | 1010.6 |
| 20260504203101 | 76 | 222 | 5.0 | 14.0 | 0.00 | 0.00 | 0.00 | 33 | 1010.7 |
| 20260504201543 | 77 | 245 | 3.0 | 8.0 | 0.00 | 0.00 | 0.00 | 33 | 1010.8 |
| 20260504200042 | 75 | 257 | 4.0 | 10.0 | 0.00 | 0.00 | 0.00 | 34 | 1011.1 |
| 20260504194541 | 77 | 338 | 7.0 | 14.0 | 0.00 | 0.00 | 0.00 | 32 | 1011.1 |
| 20260504193040 | 77 | 286 | 6.0 | 16.0 | 0.00 | 0.00 | 0.00 | 31 | 1011.2 |
| 20260504191540 | 79 | 257 | 2.0 | 8.0 | 0.00 | 0.00 | 0.00 | 31 | 1011.4 |
| 20260504190044 | 78 | 238 | 2.0 | 9.0 | 0.00 | 0.00 | 0.00 | 31 | 1011.6 |
| 20260504184534 | 78 | 233 | 2.0 | 11.0 | 0.00 | 0.00 | 0.00 | 31 | 1011.9 |
| 20260504183032 | 77 | 260 | 2.0 | 9.0 | 0.00 | 0.00 | 0.00 | 31 | 1012.2 |
| 20260504181526 | 77 | 307 | 2.0 | 7.0 | 0.00 | 0.00 | 0.00 | 30 | 1012.4 |
| 20260504180023 | 76 | 253 | 2.0 | 15.0 | 0.00 | 0.00 | 0.00 | 31 | 1012.7 |
| 20260504174521 | 76 | 349 | 2.0 | 7.0 | 0.00 | 0.00 | 0.00 | 30 | 1012.8 |
| 20260504173018 | 75 | 298 | 2.0 | 10.0 | 0.00 | 0.00 | 0.00 | 32 | 1012.9 |
| 20260504171517 | 76 | 239 | 3.0 | 8.0 | 0.00 | 0.00 | 0.00 | 30 | 1013.3 |